Powrót do katalogu

COSMOS 768

AktywnyMilitariaLEO
NORAD 8292·PAYLOAD·🇷🇺 Russia

Wystrzelony Sep 17, 1975 z Plesetsk Cosmodrome

Loading…

Następne Przeloty (najbliższe 24 godziny)

TLE

ŚwieżeSource: Space-Track

Epoka: Sep 14, 2026, 05:32 UTC

1 08292U 75086H   26257.23088302 -.00000005  00000-0  74824-4 0  9990
2 08292  74.0140 356.0877 0012607 161.8167 222.0991 12.46116213319590

Śledź COSMOS 768 w czasie rzeczywistym z AllMySat

Download on the App Store